Time,TemperatureF,DewpointF,PressureIn,WindDirection,WindDirectionDegrees,WindSpeedMPH,WindSpeedGustMPH,Humidity,HourlyPrecipIn,Conditions,Clouds,dailyrainin,SoftwareType,DateUTC
2013-06-25 00:07:00,74.3,64.3,29.86,West,280,0.0,5.0,71,0.00,,,0.00,WeatherLinkWUIModule,2013-06-25 04:07:00,
2013-06-25 00:17:00,73.9,63.9,29.86,West,280,0.0,5.0,71,0.00,,,0.00,WeatherLinkWUIModule,2013-06-25 04:17:00,
2013-06-25 00:27:00,73.0,63.8,29.86,West,280,0.0,5.0,73,0.00,,,0.00,WeatherLinkWUIModule,2013-06-25 04:27:00,
2013-06-25 00:37:00,72.5,64.1,29.86,West,280,0.0,2.0,75,0.00,,,0.00,WeatherLinkWUIModule,2013-06-25 04:37:00,
2013-06-25 00:47:00,72.6,63.8,29.86,West,280,0.0,2.0,74,0.00,,,0.00,WeatherLinkWUIModule,2013-06-25 04:47:00,
2013-06-25 00:57:00,72.5,64.1,29.85,West,280,0.0,2.0,75,0.00,,,0.00,WeatherLinkWUIModule,2013-06-25 04:57:00,
2013-06-25 01:07:00,71.9,63.9,29.85,West,280,0.0,2.0,76,0.00,,,0.00,WeatherLinkWUIModule,2013-06-25 05:07:00,
2013-06-25 01:17:00,71.0,63.8,29.85,West,280,0.0,2.0,78,0.00,,,0.00,WeatherLinkWUIModule,2013-06-25 05:17:00,
2013-06-25 01:27:00,70.8,64.0,29.85,West,280,0.0,2.0,79,0.00,,,0.00,WeatherLinkWUIModule,2013-06-25 05:27:00,
2013-06-25 01:37:00,71.3,64.1,29.85,West,280,0.0,0.0,78,0.00,,,0.00,WeatherLinkWUIModule,2013-06-25 05:37:00,
2013-06-25 01:47:00,71.1,64.3,29.85,West,280,0.0,0.0,79,0.00,,,0.00,WeatherLinkWUIModule,2013-06-25 05:47:00,
2013-06-25 01:57:00,69.8,64.1,29.85,West,280,0.0,0.0,82,0.00,,,0.00,WeatherLinkWUIModule,2013-06-25 05:57:00,
2013-06-25 02:07:00,69.7,64.0,29.85,West,280,0.0,1.0,82,0.00,,,0.00,WeatherLinkWUIModule,2013-06-25 06:07:00,
2013-06-25 02:17:00,69.6,63.9,29.84,West,280,0.0,1.0,82,0.00,,,0.00,WeatherLinkWUIModule,2013-06-25 06:17:00,
2013-06-25 02:27:00,69.5,63.8,29.84,West,280,0.0,1.0,82,0.00,,,0.00,WeatherLinkWUIModule,2013-06-25 06:27:00,
2013-06-25 02:37:00,69.5,64.1,29.84,West,280,0.0,0.0,83,0.00,,,0.00,WeatherLinkWUIModule,2013-06-25 06:37:00,
2013-06-25 02:47:00,69.4,64.0,29.84,West,280,0.0,0.0,83,0.00,,,0.00,WeatherLinkWUIModule,2013-06-25 06:47:00,
2013-06-25 02:57:00,69.2,64.2,29.83,West,280,0.0,0.0,84,0.00,,,0.00,WeatherLinkWUIModule,2013-06-25 06:57:00,
2013-06-25 03:07:00,69.2,64.2,29.83,West,277,0.0,1.0,84,0.00,,,0.00,WeatherLinkWUIModule,2013-06-25 07:07:00,
2013-06-25 03:17:00,69.3,64.3,29.82,West,277,0.0,1.0,84,0.00,,,0.00,WeatherLinkWUIModule,2013-06-25 07:17:00,
2013-06-25 03:27:00,69.4,64.4,29.82,West,277,0.0,1.0,84,0.00,,,0.00,WeatherLinkWUIModule,2013-06-25 07:27:00,
2013-06-25 03:37:00,69.2,64.5,29.82,West,277,0.0,0.0,85,0.00,,,0.00,WeatherLinkWUIModule,2013-06-25 07:37:00,
2013-06-25 03:47:00,69.2,64.8,29.82,West,277,0.0,0.0,86,0.00,,,0.00,WeatherLinkWUIModule,2013-06-25 07:47:00,
2013-06-25 03:57:00,69.3,64.9,29.82,West,277,1.0,0.0,86,0.00,,,0.00,WeatherLinkWUIModule,2013-06-25 07:57:00,
2013-06-25 04:07:00,69.3,64.9,29.82,West,277,0.0,2.0,86,0.00,,,0.00,WeatherLinkWUIModule,2013-06-25 08:07:00,
2013-06-25 04:17:00,69.2,65.2,29.81,WSW,248,0.0,2.0,87,0.00,,,0.00,WeatherLinkWUIModule,2013-06-25 08:17:00,
2013-06-25 04:27:00,69.1,65.1,29.81,WSW,248,0.0,2.0,87,0.00,,,0.00,WeatherLinkWUIModule,2013-06-25 08:27:00,
2013-06-25 04:37:00,68.9,65.2,29.81,SE,144,0.0,2.0,88,0.00,,,0.00,WeatherLinkWUIModule,2013-06-25 08:37:00,
2013-06-25 04:47:00,68.8,65.1,29.81,SE,144,0.0,2.0,88,0.00,,,0.00,WeatherLinkWUIModule,2013-06-25 08:47:00,
2013-06-25 04:57:00,68.6,64.9,29.81,SE,144,0.0,2.0,88,0.00,,,0.00,WeatherLinkWUIModule,2013-06-25 08:57:00,
2013-06-25 05:07:00,68.4,65.0,29.80,SE,144,0.0,3.0,89,0.00,,,0.00,WeatherLinkWUIModule,2013-06-25 09:07:00,
2013-06-25 05:17:00,68.2,65.2,29.80,SE,144,0.0,3.0,90,0.00,,,0.00,WeatherLinkWUIModule,2013-06-25 09:17:00,
2013-06-25 05:27:00,68.1,65.1,29.80,SE,144,0.0,3.0,90,0.00,,,0.00,WeatherLinkWUIModule,2013-06-25 09:27:00,
2013-06-25 05:37:00,68.2,65.2,29.80,SE,135,0.0,2.0,90,0.00,,,0.00,WeatherLinkWUIModule,2013-06-25 09:37:00,
2013-06-25 05:47:00,68.3,65.3,29.81,SE,135,0.0,2.0,90,0.00,,,0.00,WeatherLinkWUIModule,2013-06-25 09:47:00,
2013-06-25 05:57:00,68.2,65.2,29.81,SE,135,0.0,2.0,90,0.00,,,0.00,WeatherLinkWUIModule,2013-06-25 09:57:00,
2013-06-25 06:07:00,68.3,65.3,29.81,SE,135,0.0,1.0,90,0.00,,,0.00,WeatherLinkWUIModule,2013-06-25 10:07:00,
2013-06-25 06:17:00,68.5,65.4,29.81,SE,135,0.0,1.0,90,0.00,,,0.00,WeatherLinkWUIModule,2013-06-25 10:17:00,
2013-06-25 06:27:00,68.6,65.5,29.81,SE,135,0.0,1.0,90,0.00,,,0.00,WeatherLinkWUIModule,2013-06-25 10:27:00,
2013-06-25 06:37:00,68.9,65.5,29.81,SE,135,0.0,0.0,89,0.00,,,0.00,WeatherLinkWUIModule,2013-06-25 10:37:00,
2013-06-25 06:47:00,69.5,66.1,29.81,South,183,0.0,0.0,89,0.00,,,0.00,WeatherLinkWUIModule,2013-06-25 10:47:00,
2013-06-25 06:57:00,70.4,66.3,29.81,South,183,0.0,0.0,87,0.00,,,0.00,WeatherLinkWUIModule,2013-06-25 10:57:00,
2013-06-25 07:07:00,71.0,66.6,29.80,SSW,197,0.0,1.0,86,0.00,,,0.00,WeatherLinkWUIModule,2013-06-25 11:07:00,
2013-06-25 07:17:00,71.7,66.9,29.80,SSW,197,0.0,1.0,85,0.00,,,0.00,WeatherLinkWUIModule,2013-06-25 11:17:00,
2013-06-25 07:27:00,72.1,67.0,29.80,SSW,197,0.0,1.0,84,0.00,,,0.00,WeatherLinkWUIModule,2013-06-25 11:27:00,
2013-06-25 07:37:00,72.5,67.4,29.81,SSW,197,1.0,3.0,84,0.00,,,0.00,WeatherLinkWUIModule,2013-06-25 11:37:00,
2013-06-25 07:47:00,72.7,67.2,29.81,SSW,213,0.0,3.0,83,0.00,,,0.00,WeatherLinkWUIModule,2013-06-25 11:47:00,
2013-06-25 07:57:00,72.8,67.7,29.81,SSW,213,0.0,3.0,84,0.00,,,0.00,WeatherLinkWUIModule,2013-06-25 11:57:00,
2013-06-25 08:07:00,72.7,67.6,29.80,SSW,213,0.0,4.0,84,0.00,,,0.00,WeatherLinkWUIModule,2013-06-25 12:07:00,
2013-06-25 08:17:00,72.9,67.8,29.80,SSW,213,0.0,4.0,84,0.00,,,0.00,WeatherLinkWUIModule,2013-06-25 12:17:00,
2013-06-25 08:27:00,73.1,68.0,29.81,SSW,213,0.0,4.0,84,0.00,,,0.00,WeatherLinkWUIModule,2013-06-25 12:27:00,
2013-06-25 08:37:00,73.1,68.0,29.80,SSW,213,0.0,2.0,84,0.00,,,0.00,WeatherLinkWUIModule,2013-06-25 12:37:00,
2013-06-25 08:47:00,73.3,68.2,29.80,SSW,213,0.0,2.0,84,0.00,,,0.00,WeatherLinkWUIModule,2013-06-25 12:47:00,
2013-06-25 08:57:00,73.5,68.0,29.81,SSW,213,0.0,2.0,83,0.00,,,0.00,WeatherLinkWUIModule,2013-06-25 12:57:00,
2013-06-25 09:07:00,74.0,68.5,29.81,SSE,153,2.0,3.0,83,0.00,,,0.00,WeatherLinkWUIModule,2013-06-25 13:07:00,
2013-06-25 09:17:00,74.5,69.3,29.81,SW,228,1.0,3.0,84,0.00,,,0.00,WeatherLinkWUIModule,2013-06-25 13:17:00,
2013-06-25 09:27:00,75.2,69.3,29.81,WSW,240,1.0,3.0,82,0.00,,,0.00,WeatherLinkWUIModule,2013-06-25 13:27:00,
2013-06-25 09:37:00,75.9,69.3,29.80,NW,318,2.0,6.0,80,0.00,,,0.00,WeatherLinkWUIModule,2013-06-25 13:37:00,
2013-06-25 09:47:00,76.5,69.1,29.80,West,263,5.0,6.0,78,0.00,,,0.00,WeatherLinkWUIModule,2013-06-25 13:47:00,
2013-06-25 09:57:00,76.9,68.8,29.80,WNW,298,7.0,7.0,76,0.00,,,0.00,WeatherLinkWUIModule,2013-06-25 13:57:00,
2013-06-25 10:07:00,76.4,68.3,29.81,NW,319,13.0,14.0,76,0.00,,,0.00,WeatherLinkWUIModule,2013-06-25 14:07:00,
2013-06-25 10:17:00,73.5,66.6,29.82,West,281,3.0,14.0,79,0.00,,,0.00,WeatherLinkWUIModule,2013-06-25 14:17:00,
2013-06-25 10:27:00,71.2,66.1,29.81,West,273,6.0,14.0,84,0.00,,,0.00,WeatherLinkWUIModule,2013-06-25 14:27:00,
2013-06-25 10:37:00,71.5,66.8,29.81,WNW,292,7.0,18.0,85,0.00,,,0.01,WeatherLinkWUIModule,2013-06-25 14:37:00,
2013-06-25 10:47:00,72.3,67.2,29.81,WNW,299,4.0,18.0,84,0.00,,,0.01,WeatherLinkWUIModule,2013-06-25 14:47:00,
2013-06-25 10:57:00,73.2,67.7,29.80,WNW,287,4.0,18.0,83,0.00,,,0.01,WeatherLinkWUIModule,2013-06-25 14:57:00,
2013-06-25 11:07:00,73.7,67.5,29.80,NNW,344,6.0,10.0,81,0.00,,,0.01,WeatherLinkWUIModule,2013-06-25 15:07:00,
2013-06-25 11:17:00,74.6,68.4,29.80,NW,315,3.0,10.0,81,0.00,,,0.01,WeatherLinkWUIModule,2013-06-25 15:17:00,
2013-06-25 11:27:00,76.2,69.2,29.79,WSW,257,3.0,10.0,79,0.00,,,0.01,WeatherLinkWUIModule,2013-06-25 15:27:00,
2013-06-25 11:37:00,76.8,68.3,29.79,SSW,211,1.0,14.0,75,0.00,,,0.01,WeatherLinkWUIModule,2013-06-25 15:37:00,
2013-06-25 11:47:00,76.8,68.7,29.79,NW,317,4.0,14.0,76,0.00,,,0.01,WeatherLinkWUIModule,2013-06-25 15:47:00,
2013-06-25 11:57:00,78.5,69.5,29.79,NW,309,4.0,14.0,74,0.00,,,0.01,WeatherLinkWUIModule,2013-06-25 15:57:00,
2013-06-25 12:07:00,78.6,68.8,29.79,WNW,289,4.0,18.0,72,0.00,,,0.02,WeatherLinkWUIModule,2013-06-25 16:07:00,
2013-06-25 12:17:00,79.1,69.3,29.79,WNW,286,9.0,18.0,72,0.00,,,0.02,WeatherLinkWUIModule,2013-06-25 16:17:00,
2013-06-25 12:27:00,78.6,69.6,29.79,WNW,288,3.0,18.0,74,0.00,,,0.02,WeatherLinkWUIModule,2013-06-25 16:27:00,
2013-06-25 12:37:00,78.3,69.7,29.79,SW,225,6.0,17.0,75,0.00,,,0.02,WeatherLinkWUIModule,2013-06-25 16:37:00,
2013-06-25 12:47:00,78.7,68.9,29.79,NW,326,4.0,17.0,72,0.00,,,0.02,WeatherLinkWUIModule,2013-06-25 16:47:00,
2013-06-25 12:57:00,78.2,68.0,29.78,WNW,292,6.0,17.0,71,0.00,,,0.02,WeatherLinkWUIModule,2013-06-25 16:57:00,
2013-06-25 13:07:00,77.7,67.5,29.78,NW,308,3.0,11.0,71,0.00,,,0.02,WeatherLinkWUIModule,2013-06-25 17:07:00,
2013-06-25 13:17:00,76.4,68.3,29.79,WNW,288,1.0,11.0,76,0.00,,,0.02,WeatherLinkWUIModule,2013-06-25 17:17:00,
2013-06-25 13:27:00,74.3,68.4,29.79,NW,314,1.0,11.0,82,0.00,,,0.02,WeatherLinkWUIModule,2013-06-25 17:27:00,
2013-06-25 13:37:00,74.3,68.8,29.78,WNW,295,0.0,11.0,83,0.00,,,0.02,WeatherLinkWUIModule,2013-06-25 17:37:00,
2013-06-25 13:47:00,76.0,70.1,29.78,West,261,0.0,11.0,82,0.00,,,0.02,WeatherLinkWUIModule,2013-06-25 17:47:00,
2013-06-25 13:57:00,77.2,69.8,29.78,NW,318,4.0,11.0,78,0.00,,,0.02,WeatherLinkWUIModule,2013-06-25 17:57:00,
2013-06-25 14:07:00,78.6,70.8,29.77,SW,220,5.0,9.0,77,0.00,,,0.02,WeatherLinkWUIModule,2013-06-25 18:07:00,
2013-06-25 14:17:00,80.0,71.8,29.76,NE,52,1.0,9.0,76,0.00,,,0.02,WeatherLinkWUIModule,2013-06-25 18:17:00,
2013-06-25 14:27:00,80.5,69.8,29.77,SW,225,4.0,9.0,70,0.00,,,0.02,WeatherLinkWUIModule,2013-06-25 18:27:00,
2013-06-25 14:37:00,80.6,70.7,29.77,WNW,297,7.0,12.0,72,0.00,,,0.02,WeatherLinkWUIModule,2013-06-25 18:37:00,
2013-06-25 14:47:00,80.3,70.0,29.77,West,273,4.0,12.0,71,0.00,,,0.02,WeatherLinkWUIModule,2013-06-25 18:47:00,
2013-06-25 14:57:00,79.4,69.6,29.77,WNW,287,0.0,12.0,72,0.00,,,0.02,WeatherLinkWUIModule,2013-06-25 18:57:00,
2013-06-25 15:07:00,79.4,70.4,29.77,WNW,303,0.0,11.0,74,0.00,,,0.02,WeatherLinkWUIModule,2013-06-25 19:07:00,
2013-06-25 15:17:00,79.2,70.2,29.77,NW,306,0.0,11.0,74,0.00,,,0.02,WeatherLinkWUIModule,2013-06-25 19:17:00,
2013-06-25 15:27:00,79.5,70.1,29.76,NW,306,1.0,11.0,73,0.00,,,0.02,WeatherLinkWUIModule,2013-06-25 19:27:00,
2013-06-25 15:37:00,79.3,69.5,29.76,NW,306,4.0,11.0,72,0.00,,,0.02,WeatherLinkWUIModule,2013-06-25 19:37:00,
2013-06-25 15:47:00,79.0,69.6,29.76,West,267,3.0,11.0,73,0.00,,,0.02,WeatherLinkWUIModule,2013-06-25 19:47:00,
2013-06-25 15:57:00,79.0,69.6,29.76,West,259,5.0,11.0,73,0.00,,,0.02,WeatherLinkWUIModule,2013-06-25 19:57:00,
2013-06-25 16:07:00,78.4,69.4,29.76,WNW,301,0.0,12.0,74,0.00,,,0.02,WeatherLinkWUIModule,2013-06-25 20:07:00,
2013-06-25 16:17:00,78.1,68.7,29.76,West,266,4.0,12.0,73,0.00,,,0.02,WeatherLinkWUIModule,2013-06-25 20:17:00,
2013-06-25 16:27:00,78.8,69.0,29.76,NW,313,6.0,12.0,72,0.00,,,0.02,WeatherLinkWUIModule,2013-06-25 20:27:00,
2013-06-25 16:37:00,80.0,70.2,29.75,West,278,4.0,14.0,72,0.00,,,0.02,WeatherLinkWUIModule,2013-06-25 20:37:00,
2013-06-25 16:47:00,80.1,69.8,29.75,NW,306,8.0,14.0,71,0.00,,,0.02,WeatherLinkWUIModule,2013-06-25 20:47:00,
2013-06-25 16:57:00,80.3,69.2,29.75,West,275,9.0,14.0,69,0.00,,,0.02,WeatherLinkWUIModule,2013-06-25 20:57:00,
2013-06-25 17:07:00,80.2,69.5,29.74,NW,321,3.0,13.0,70,0.00,,,0.02,WeatherLinkWUIModule,2013-06-25 21:07:00,
2013-06-25 17:17:00,80.4,69.7,29.74,WSW,253,11.0,13.0,70,0.00,,,0.02,WeatherLinkWUIModule,2013-06-25 21:17:00,
2013-06-25 17:27:00,80.4,68.9,29.73,WNW,303,5.0,13.0,68,0.00,,,0.02,WeatherLinkWUIModule,2013-06-25 21:27:00,
2013-06-25 17:37:00,80.1,69.4,29.73,NW,308,8.0,13.0,70,0.00,,,0.02,WeatherLinkWUIModule,2013-06-25 21:37:00,
2013-06-25 17:47:00,79.7,67.3,29.73,West,271,7.0,13.0,66,0.00,,,0.02,WeatherLinkWUIModule,2013-06-25 21:47:00,
2013-06-25 17:57:00,79.3,67.8,29.73,WNW,302,10.0,13.0,68,0.00,,,0.02,WeatherLinkWUIModule,2013-06-25 21:57:00,
2013-06-25 18:07:00,79.1,67.6,29.72,NW,307,9.0,16.0,68,0.00,,,0.02,WeatherLinkWUIModule,2013-06-25 22:07:00,
2013-06-25 18:17:00,78.9,67.4,29.72,WNW,292,8.0,16.0,68,0.00,,,0.02,WeatherLinkWUIModule,2013-06-25 22:17:00,
2013-06-25 18:27:00,78.9,67.9,29.71,North,5,7.0,16.0,69,0.00,,,0.02,WeatherLinkWUIModule,2013-06-25 22:27:00,
2013-06-25 18:37:00,78.8,67.3,29.71,WNW,293,9.0,12.0,68,0.00,,,0.02,WeatherLinkWUIModule,2013-06-25 22:37:00,
2013-06-25 18:47:00,78.9,67.9,29.71,WNW,284,6.0,12.0,69,0.00,,,0.02,WeatherLinkWUIModule,2013-06-25 22:47:00,
2013-06-25 18:57:00,78.8,66.9,29.71,WNW,288,3.0,12.0,67,0.00,,,0.02,WeatherLinkWUIModule,2013-06-25 22:57:00,
2013-06-25 19:07:00,78.7,66.4,29.72,WSW,240,2.0,12.0,66,0.00,,,0.02,WeatherLinkWUIModule,2013-06-25 23:07:00,
2013-06-25 19:17:00,78.3,66.0,29.72,WNW,293,3.0,12.0,66,0.00,,,0.02,WeatherLinkWUIModule,2013-06-25 23:17:00,
2013-06-25 19:27:00,77.9,66.1,29.72,West,274,0.0,12.0,67,0.00,,,0.02,WeatherLinkWUIModule,2013-06-25 23:27:00,
2013-06-25 19:37:00,77.4,64.7,29.72,West,265,6.0,9.0,65,0.00,,,0.02,WeatherLinkWUIModule,2013-06-25 23:37:00,
2013-06-25 19:47:00,76.7,64.5,29.72,NW,309,6.0,9.0,66,0.00,,,0.02,WeatherLinkWUIModule,2013-06-25 23:47:00,
2013-06-25 19:57:00,76.3,64.5,29.72,NW,307,5.0,9.0,67,0.00,,,0.02,WeatherLinkWUIModule,2013-06-25 23:57:00,
2013-06-25 20:07:00,75.9,64.6,29.72,West,280,3.0,11.0,68,0.00,,,0.02,WeatherLinkWUIModule,2013-06-26 00:07:00,
2013-06-25 20:17:00,75.8,64.9,29.71,NW,308,2.0,11.0,69,0.00,,,0.02,WeatherLinkWUIModule,2013-06-26 00:17:00,
2013-06-25 20:27:00,75.5,64.6,29.72,NW,307,3.0,11.0,69,0.00,,,0.02,WeatherLinkWUIModule,2013-06-26 00:27:00,
2013-06-25 20:37:00,75.2,64.7,29.71,West,279,3.0,9.0,70,0.00,,,0.02,WeatherLinkWUIModule,2013-06-26 00:37:00,
2013-06-25 20:47:00,74.9,64.5,29.72,West,263,1.0,9.0,70,0.00,,,0.02,WeatherLinkWUIModule,2013-06-26 00:47:00,
2013-06-25 20:57:00,74.7,64.7,29.72,WNW,303,6.0,9.0,71,0.00,,,0.02,WeatherLinkWUIModule,2013-06-26 00:57:00,
2013-06-25 21:07:00,74.8,64.8,29.72,SW,217,5.0,8.0,71,0.00,,,0.02,WeatherLinkWUIModule,2013-06-26 01:07:00,
2013-06-25 21:17:00,74.6,64.2,29.72,WNW,294,3.0,8.0,70,0.00,,,0.02,WeatherLinkWUIModule,2013-06-26 01:17:00,
2013-06-25 21:27:00,74.5,64.1,29.72,West,262,3.0,8.0,70,0.00,,,0.02,WeatherLinkWUIModule,2013-06-26 01:27:00,
2013-06-25 21:37:00,74.3,63.9,29.73,West,273,4.0,8.0,70,0.00,,,0.02,WeatherLinkWUIModule,2013-06-26 01:37:00,
2013-06-25 21:47:00,74.2,63.8,29.73,WSW,245,0.0,8.0,70,0.00,,,0.02,WeatherLinkWUIModule,2013-06-26 01:47:00,
2013-06-25 21:57:00,74.1,63.7,29.74,West,271,3.0,8.0,70,0.00,,,0.02,WeatherLinkWUIModule,2013-06-26 01:57:00,
2013-06-25 22:07:00,73.8,63.8,29.75,South,179,0.0,10.0,71,0.00,,,0.02,WeatherLinkWUIModule,2013-06-26 02:07:00,
2013-06-25 22:17:00,73.7,63.7,29.75,South,180,0.0,10.0,71,0.00,,,0.02,WeatherLinkWUIModule,2013-06-26 02:17:00,
2013-06-25 22:27:00,73.6,64.4,29.75,South,180,0.0,10.0,73,0.00,,,0.02,WeatherLinkWUIModule,2013-06-26 02:27:00,
2013-06-25 22:37:00,72.5,64.9,29.75,South,180,0.0,4.0,77,0.00,,,0.02,WeatherLinkWUIModule,2013-06-26 02:37:00,
2013-06-25 22:47:00,71.3,65.2,29.75,South,180,0.0,4.0,81,0.00,,,0.02,WeatherLinkWUIModule,2013-06-26 02:47:00,
2013-06-25 22:57:00,70.8,65.4,29.74,South,180,0.0,4.0,83,0.00,,,0.02,WeatherLinkWUIModule,2013-06-26 02:57:00,
2013-06-25 23:07:00,70.6,65.2,29.75,South,180,1.0,1.0,83,0.00,,,0.02,WeatherLinkWUIModule,2013-06-26 03:07:00,
2013-06-25 23:17:00,71.3,64.4,29.74,NW,305,0.0,1.0,79,0.00,,,0.02,WeatherLinkWUIModule,2013-06-26 03:17:00,
2013-06-25 23:27:00,71.6,64.0,29.74,NW,312,3.0,3.0,77,0.00,,,0.02,WeatherLinkWUIModule,2013-06-26 03:27:00,
2013-06-25 23:37:00,71.6,64.4,29.74,WNW,283,0.0,6.0,78,0.00,,,0.02,WeatherLinkWUIModule,2013-06-26 03:37:00,
2013-06-25 23:47:00,71.6,64.4,29.73,WNW,292,4.0,6.0,78,0.00,,,0.02,WeatherLinkWUIModule,2013-06-26 03:47:00,
2013-06-25 23:57:00,71.5,65.0,29.73,WNW,290,4.0,6.0,80,0.00,,,0.02,WeatherLinkWUIModule,2013-06-26 03:57:00,